This is the latest recevied weather packets stored in our database for station/object SV9FBP. If no packets are shown the sender has not sent any weather packets the latest 10 day(s).
| Time | Temp. | Humidity | Pressure | Rain* | Wind** | Luminosity | Snow |
|---|---|---|---|---|---|---|---|
| 1777395455 | 19.44° C | 61% | 1012.6 hPa | 0 mm | - | - | - |
| 1777394554 | 19.44° C | 60% | 1012.6 hPa | 0 mm | - | - | - |
| 1777393651 | 20° C | 60% | 1012.4 hPa | 0 mm | - | - | - |
| 1777392749 | 20.56° C | 60% | 1012.6 hPa | 0 mm | - | - | - |
| 1777391846 | 20.56° C | 60% | 1012.3 hPa | 0 mm | - | - | - |
| 1777390944 | 21.11° C | 57% | 1012.5 hPa | 0 mm | - | - | - |
| 1777390042 | 21.11° C | 53% | 1012.4 hPa | 0 mm | - | - | - |
| 1777389143 | 21.67° C | 51% | 1012.6 hPa | 0 mm | - | - | - |
| 1777388238 | 21.67° C | 50% | 1012.5 hPa | 0 mm | - | - | - |
| 1777387337 | 22.22° C | 50% | 1012.8 hPa | 0 mm | - | - | - |
| 1777386434 | 22.22° C | 50% | 1012.8 hPa | 0 mm | - | - | - |
| 1777385531 | 22.78° C | 50% | 1012.7 hPa | 0 mm | - | - | - |
| 1777384629 | 22.78° C | 50% | 1012.7 hPa | 0 mm | - | - | - |
| 1777383727 | 22.78° C | 50% | 1012.5 hPa | 0 mm | - | - | - |
| 1777382826 | 22.78° C | 47% | 1012.6 hPa | 0 mm | - | - | - |
| 1777381923 | 23.33° C | 46% | 1012.5 hPa | 0 mm | - | - | - |
| 1777381021 | 23.89° C | 45% | 1012.5 hPa | 0 mm | - | - | - |
| 1777380118 | 23.89° C | 47% | 1012.7 hPa | 0 mm | - | - | - |
| 1777379217 | 24.44° C | 46% | 1013 hPa | 0 mm | - | - | - |
| 1777378314 | 24.44° C | 45% | 1013 hPa | 0 mm | - | - | - |
| 1777377412 | 25.56° C | 45% | 1013 hPa | 0 mm | - | - | - |
| 1777376510 | 25.56° C | 43% | 1013 hPa | 0 mm | - | - | - |
| 1777375608 | 25.56° C | 41% | 1013 hPa | 0 mm | - | - | - |
| 1777374706 | 25° C | 40% | 1013 hPa | 0 mm | - | - | - |
| 1777373804 | 25° C | 40% | 1013 hPa | 0 mm | - | - | - |
* Rain latest hour (hover to see other rain measurements)
** Current wind speed in m/s (hover to see current wind gust speed)